Flag for Norway Weather past 2 weeks in Namsos, Norway

Now
39 °F

Light rain. Broken clouds.


Feels Like: 39 °F
Forecast: 36 / 40 °F
Wind: 1 mph from East

Location: Namsos Lufthavn

Current Time: Oct 22, 2014 at 5:51:29 PM

Latest Report: Oct 22, 2014 at 4:50 PM


Visibility: N/A

Pressure: 29.89 "Hg

Humidity: 87%

Dew point: 36 °F

Location of NamsosLocation

Historic Weather in Namsos — Graph

°F

Namsos temperature yesterday

Maximum temperature yesterday: 46 °F (at 12:50 PM)
Minimum temperature yesterday: 39 °F (at 5:50 AM)
Average temperature yesterday: 43 °F

Past Weeks' High & Low Weather Summary

 TemperatureHumidityPressure
High50 °F (Oct 7, 4:20 PM)100% (Oct 14, 7:20 AM)30.15 "Hg (Oct 14, 7:20 AM)
Low28 °F (Oct 18, 5:50 AM)45% (Oct 16, 12:50 PM)29.33 "Hg (Oct 20, 6:50 AM)
Average42 °F73%29.79 "Hg
* Reported Oct 7 4:20 PM — Oct 22 4:20 PM, Namsos, Weather by CustomWeather, © 2014

Note: Actual official high and low records may vary slightly from our data, if they occured in-between our weather recording intervals... More about our weather records

Advertising

Namsos weather history for previous 24 hours

 ConditionsComfort  
Time TempWeatherWind HumidityBarometerVisibility
4:20 PM
Oct 22
39 °FLight rain. Broken clouds.14 mph87%29.89 "HgN/A
3:50 PM39 °FLight rain. Scattered clouds.14 mph81%29.89 "HgN/A
3:20 PM39 °FLight rain. Broken clouds.13 mph87%29.89 "HgN/A
1:50 PM39 °FLight rain. Broken clouds.13 mph87%29.86 "HgN/A
1:20 PM39 °FLight rain. Broken clouds.15 mph87%29.86 "HgN/A
12:50 PM39 °FLight rain. Broken clouds.15 mph87%29.86 "HgN/A
12:20 PM39 °FLight rain. Partly sunny.15 mph81%29.86 "HgN/A
11:50 AM39 °FLight rain. Partly sunny.17 mph81%29.83 "HgN/A
11:20 AM39 °FLight rain. Partly sunny.12 mph87%29.83 "HgN/A
10:50 AM39 °FLight rain. Partly sunny.15 mph75%29.83 "HgN/A
10:20 AM39 °FLight rain. Broken clouds.17 mph75%29.80 "HgN/A
9:50 AM39 °FLight rain. Partly sunny.21 mph75%29.80 "HgN/A
9:20 AM39 °FLight rain. Passing clouds.21 mph75%29.80 "HgN/A
8:50 AM39 °FSprinkles. Passing clouds.16 mph75%29.80 "HgN/A
8:20 AM41 °FPartly cloudy.16 mph66%29.77 "HgN/A
7:50 AM41 °FPassing clouds.14 mph66%29.77 "HgN/A
7:20 AM41 °FPassing clouds.16 mph66%29.74 "HgN/A
6:50 AM39 °FPassing clouds.13 mph70%29.74 "HgN/A
6:20 AM41 °FClear.18 mph66%29.74 "Hg10 mi
5:50 AM39 °FClear.23 mph70%29.71 "Hg10 mi
9:50 PM
Oct 21
43 °FClear.21 mph61%29.59 "Hg10 mi
9:20 PM43 °FPartly cloudy.26 mph61%29.59 "HgN/A
8:50 PM43 °FPartly cloudy.21 mph61%29.59 "HgN/A
8:20 PM43 °FPartly cloudy.29 mph61%29.59 "HgN/A
7:50 PM43 °FPartly cloudy.24 mph61%29.59 "HgN/A
6:50 PM43 °FPartly cloudy.29 mph66%29.56 "HgN/A
6:20 PM43 °FBroken clouds.33 mph66%29.56 "HgN/A
5:50 PM43 °FBroken clouds.29 mph66%29.56 "HgN/A
5:20 PM43 °FBroken clouds.22 mph66%29.56 "HgN/A
Weather by CustomWeather, © 2014

See weather overviewHow to use our weather pages